Regional Weather Roundup
Issued by NWS Albany, NY

Home | Current Version | Previous Version | Text Only | Print | Product List | Glossary On
Versions: 1 2 3 4 5 6 7 8 9 10 11 12 13 14 15 16 17 18 19 20 21 22 23 24 25 26 27 28 29 30 31 32 33 34 35 36 37 38 39 40 41 42 43 44 45 46 47 48 49 50
000
ASUS41 KALY 050410
RWRALY

NEW YORK STATE HOURLY WEATHER ROUNDUP
NATIONAL WEATHER SERVICE ALBANY NY
1100 PM EST SUN DEC 04 2016

NOTE: "FAIR" INDICATES FEW OR NO CLOUDS BELOW 12,000 FEET WITH NO
SIGNIFICANT WEATHER AND/OR NO OBSTRUCTIONS TO VISIBILITY.

NYZ032-033-038>043-046>054-057>066-NYZ062>081-082-084-050500-
EAST


CITY           SKY/WX    TMP DP  RH WIND       PRES   REMARKS
ALBANY         CLOUDY    26  20  77 CALM      30.15F
GLENS FALLS    PTCLDY    22  17  81 CALM      30.15F
POUGHKEEPSIE   MOCLDY    30  23  75 CALM      30.15F
NEWBURGH       CLOUDY    32  25  74 NE8       30.15F WCI  25
MONTGOMERY     MOCLDY    32  22  66 NE5       30.13F WCI  27
WHITE PLAINS   MOCLDY    35  20  54 NE3       30.14S
ISLIP          CLOUDY    35  26  69 CALM      30.16R
NEW YORK CITY  CLOUDY    41  24  51 E10       30.15F
CENTRAL PARK   CLOUDY    40  24  53 VRB5      30.17F
$$

NYZ005>009-017-018-044>046-055-056-050500-
CENTRAL


CITY           SKY/WX    TMP DP  RH WIND       PRES   REMARKS
FULTON         MOCLDY    30  23  75 VRB6      30.01F WCI  24
SYRACUSE       CLOUDY    29  23  78 E7        30.02F WCI  22
ROME           MOCLDY    27  22  81 E9        30.10F WCI  18
ELMIRA         CLOUDY    37  23  56 CALM      29.95F
BINGHAMTON     CLOUDY    30  23  75 SE10      29.97F WCI  21
MONTICELLO     CLOUDY    28  21  74 E7        30.09F WCI  21
$$

NYZ026>034-041>043-087-050500-
NORTH


CITY           SKY/WX    TMP DP  RH WIND       PRES   REMARKS
WATERTOWN      PTCLDY    27  21  78 E8        30.05F WCI  19
FORT DRUM      NOT AVBL
OGDENSBURG     FAIR      22  21  96 CALM      30.10F
MASSENA        CLOUDY    19  16  88 E3        30.13F
SARANAC LAKE   CLOUDY    11   7  84 CALM      30.02F
PLATTSBURGH    MOCLDY    23  19  85 CALM      30.15F
$$

NYZ001>004-010>016-019>021-085-050500-
WEST


CITY           SKY/WX    TMP DP  RH WIND       PRES   REMARKS
NIAGARA FALLS  CLOUDY    36  27  69 E12       29.90F WCI  28
BUFFALO        CLOUDY    36  26  67 E7        29.90F WCI  30
DUNKIRK        CLOUDY    38  28  67 CALM      29.90R
JAMESTOWN      CLOUDY    34  27  75 S9        29.85R WCI  26
WELLSVILLE     CLOUDY    35  24  64 SE20G28   29.85F WCI  24
ROCHESTER      CLOUDY    36  27  69 E10       29.94F WCI  28
PENN YAN       CLOUDY    36  23  59 SE5       29.95F WCI  32
$$

             KEY
       WCI = WIND CHILL INDEX
       VSB = VISIBILITY
       HX  = HEAT INDEX
$$



USA.gov is the U.S. government's official web portal to all federal, state and local government web resources and services.